STARLINK-2485, 48142

Orbit data source: Space-Track

STARLINK-2485, 48142 is a payload satellite owned by SpaceX/Seattle (US) in LEO that was launched on Wed, 07 Apr 2021 UTC via an FALCON 9 launch vehicle from the Air Force Eastern Test Range (AFETR). Payload-class satellites include a variety of spacecraft equipped with specific instruments for various scientific and technological missions. These include communications satellites like Starlink; space stations such as the ISS; scientific satellites like the Hubble; Earth observation satellites from companies like Planet Labs, Umbra, and HawkEye 360; GPS; miniature CubeSats for education and research; and military/defense satellites.

Loading next visibility...
Identifier
48142, 2021-027BC
Orbit
LEO
Country
Flag of USUS
Related business
Manufacturer
SpaceX/Seattle
Mission
Operational Commercial Communications
Bus & Motor
STARLINK, Unknown motor
Mass
260 kg wet, ~248 kg dry
Launch date (UTC)
2021-04-07 (5 years ago)
Launch vehicle
FALCON 9
Launch site
Air Force Eastern Test Range (AFETR)
Object type
Payload
Rocket body
Debris
Shape & HBR
Box + 1 Pan, 10.1 m
Radar Cross Section
13.562 m², Large (>1 m²)

Expand to show TLE details & history
Last TLE update: 2 days ago

TLE from 2 days ago
0 STARLINK-2485
1 48142U 21027BC  26171.31860619 -.00000142  00000-0  72037-5 0  9994
2 48142  53.1623  35.6003 0001305 100.7999 259.3149 15.31705419288403
Epoch: 2026-06-20T07:38Z
TLE epoch observation values (Epoch: 2026-06-20T07:38:47.574Z)
Latitude
-0.00007°
Longitude
12.36708°
Altitude
471.79 km
Speed
7.631 km/s
True Right ascension
02h 22m 24s
True Declination
0° 00' 00"
Sunlit
Object was in daylight at epoch
Visualization orbit readout
Latitude
Unknown
Longitude
Unknown
Altitude
Unknown
Speed
Unknown
Apparent Right ascension
Unknown
Apparent Declination
Unknown
Sunlit
N/A
Visualization observer readout
Local Sidereal Time
21:24:11
Azimuth
Unknown
Elevation
Unknown
Doppler factor
Unknown
Orbital elements
Apogee altitude
471.874 km
Perigee altitude
470.086 km
Semi-major axis
6,849.117 km
Eccentricity
0.00013
Inclination
53.1623°
RAAN
35.6003°
Arg. of periapsis
100.7999°
True anomaly
259.30021°
Mean anomaly
259.3149°
Eccentric anomaly
259.30755°
Mean motion
3.82905 °/min
Orbital period
94.02 mins
BSTAR
0.0000072037
Loading maneuver chart data...
Computing Atmospheric mass density...
Loading historical data...
Loading historical data...
Loading historical data...
Loading historical data...
Loading historical data...
Loading historical data...
Loading historical data...

Documentation

Showing up to 5 results
|